Location: Huesca
(42.1318°N, 0.4078°W)
Time: 21:51:48
(UTC+02:00)

Vanguard 3 - Pass Details

Date: 23 July 2024
Orbit: 508 x 3215 km, 33.4° (Epoch: 16 June)

Event Time Altitude Azimuth Distance (km) Brightness Sun altitude
Rises 08:09:46 0° 280° (W) 6,901 11.3 13.5°
Reaches altitude 10° 08:15:01 10° 272° (W) 6,054 11.0 14.5°
Maximum altitude 08:30:27 31° 220° (SW) 4,498 10.7 17.3°
Drops below altitude 10° 08:44:13 10° 166° (SSE) 5,342 11.4 19.8°
Sets 08:48:34 0° 156° (SSE) 6,010 11.8 20.6°
